"read_dt","SO2 (ppb)","flags","PMT voltage (V)","lamp voltage (V)","lamp intensity (Hz)","internal temp (C)","react chamber temp (C)","sample flow (l/min)","pres (mmHg)","SO2 bkg (ppb)","SO2 coefficient"
2018-06-19 00:00:00,-2.869E-01,4C000000*,-702.6,976.725,90,28.3,44.9,0.407,734.8,2.1,1.050*
2018-06-19 00:01:00,-3.324E-01,4C000000*,-702.6,975.916,90,28.3,45.1,0.406,734.8,2.1,1.050*
2018-06-19 00:02:00,-3.342E-01,4C000000*,-702.3,976.320,90,28.3,44.8,0.406,734.8,2.1,1.050*
2018-06-19 00:03:00,-2.388E-01,4C000000*,-703.0,977.533,90,28.3,45.0,0.406,734.8,2.1,1.050*
2018-06-19 00:04:00,-3.475E-01,4C000000*,-702.6,975.512,90,28.2,45.0,0.407,734.8,2.1,1.050*
2018-06-19 00:05:00,-2.707E-01,4C000000*,-702.6,975.916,90,28.3,44.9,0.406,734.8,2.1,1.050*
2018-06-19 00:06:00,-3.745E-01,4C000000*,-702.6,977.129,90,28.2,45.1,0.407,734.8,2.1,1.050*
2018-06-19 00:07:00,-2.718E-01,4C000000*,-702.6,978.342,91,28.3,44.8,0.407,734.8,2.1,1.050*
2018-06-19 00:08:00,-2.641E-01,4C000000*,-702.6,977.129,91,28.3,45.1,0.406,734.8,2.1,1.050*
2018-06-19 00:09:00,-2.918E-01,4C000000*,-703.0,977.129,89,28.3,44.9,0.406,734.8,2.1,1.050*
2018-06-19 00:10:00,-2.615E-01,4C000000*,-702.6,976.725,91,28.3,45.1,0.406,734.8,2.1,1.050*
2018-06-19 00:11:00,-1.611E-01,4C000000*,-702.6,977.938,91,28.3,45.0,0.406,734.8,2.1,1.050*
2018-06-19 00:12:00,-2.823E-01,4C000000*,-702.6,976.725,89,28.3,44.9,0.407,735.1,2.1,1.050*
2018-06-19 00:13:00,-2.556E-01,4C000000*,-702.6,977.129,90,28.4,45.0,0.406,734.8,2.1,1.050*
2018-06-19 00:14:00,-2.004E-01,4C000000*,-703.4,977.533,91,28.3,44.8,0.406,734.8,2.1,1.050*
2018-06-19 00:15:00,-3.257E-01,4C000000*,-702.6,977.533,91,28.3,45.2,0.406,734.8,2.1,1.050*
2018-06-19 00:16:00,-1.832E-01,4C000000*,-702.3,977.129,90,28.4,44.8,0.406,734.8,2.1,1.050*
2018-06-19 00:17:00,-2.637E-01,4C000000*,-703.0,976.320,89,28.4,45.1,0.406,734.8,2.1,1.050*
2018-06-19 00:18:00,-2.908E-01,4C000000*,-703.0,977.533,90,28.4,44.9,0.406,734.8,2.1,1.050*
2018-06-19 00:19:00,-2.539E-01,4C000000*,-703.0,977.129,87,28.4,45.0,0.407,734.8,2.1,1.050*
2018-06-19 00:20:00,-3.114E-01,4C000000*,-702.6,976.725,90,28.3,45.1,0.406,734.8,2.1,1.050*
2018-06-19 00:21:00,-3.151E-01,4C000000*,-702.6,977.533,90,28.4,44.9,0.406,734.8,2.1,1.050*
2018-06-19 00:22:00,-2.394E-01,4C000000*,-702.3,977.938,90,28.4,45.2,0.406,734.8,2.1,1.050*
2018-06-19 00:23:00,-2.412E-01,4C000000*,-703.0,978.342,90,28.4,44.8,0.406,734.8,2.1,1.050*
2018-06-19 00:24:00,-3.346E-01,4C000000*,-702.3,979.150,91,28.4,45.0,0.406,735.1,2.1,1.050*
2018-06-19 00:25:00,-2.813E-01,4C000000*,-702.6,977.129,90,28.4,44.9,0.406,734.8,2.1,1.050*
2018-06-19 00:26:00,-3.024E-01,4C000000*,-702.3,977.533,90,28.4,45.0,0.407,734.8,2.1,1.050*
2018-06-19 00:27:00,-3.613E-01,4C000000*,-702.6,977.938,90,28.5,45.1,0.407,734.8,2.1,1.050*
2018-06-19 00:28:00,-2.018E-01,4C000000*,-702.6,975.916,90,28.5,44.9,0.406,735.1,2.1,1.050*
2018-06-19 00:29:00,-2.546E-01,4C000000*,-703.0,977.129,90,28.5,45.1,0.406,734.8,2.1,1.050*
2018-06-19 00:30:00,-2.318E-01,4C000000*,-703.0,976.320,90,28.5,44.8,0.407,734.8,2.1,1.050*
2018-06-19 00:31:00,-1.825E-01,4C000000*,-702.6,976.725,90,28.5,45.1,0.407,734.8,2.1,1.050*
2018-06-19 00:32:00,-2.855E-01,4C000000*,-702.6,977.938,91,28.5,44.9,0.406,734.8,2.1,1.050*
2018-06-19 00:33:00,-2.719E-01,4C000000*,-702.6,976.725,90,28.6,45.0,0.406,734.8,2.1,1.050*
2018-06-19 00:34:00,-2.524E-01,4C000000*,-702.6,977.938,90,28.6,45.1,0.406,734.8,2.1,1.050*
2018-06-19 00:35:00,-3.058E-01,4C000000*,-703.0,977.938,89,28.5,44.9,0.406,734.8,2.1,1.050*
2018-06-19 00:36:00,-3.239E-01,4C000000*,-702.6,976.725,90,28.5,45.0,0.406,734.8,2.1,1.050*
2018-06-19 00:37:00,-3.147E-01,4C000000*,-702.6,976.320,90,28.5,44.8,0.406,734.8,2.1,1.050*
2018-06-19 00:38:00,-3.109E-01,4C000000*,-703.0,977.129,90,28.5,45.2,0.406,734.8,2.1,1.050*
2018-06-19 00:39:00,-2.208E-01,4C000000*,-703.0,975.916,89,28.5,44.9,0.407,734.8,2.1,1.050*
2018-06-19 00:40:00,-2.050E-01,4C000000*,-702.3,975.512,90,28.5,45.0,0.406,734.8,2.1,1.050*
2018-06-19 00:41:00,-3.184E-01,4C000000*,-702.6,977.129,90,28.6,44.9,0.407,734.8,2.1,1.050*
2018-06-19 00:42:00,-3.334E-01,4C000000*,-702.6,977.129,90,28.6,44.9,0.407,734.8,2.1,1.050*
2018-06-19 00:43:00,-2.985E-01,4C000000*,-702.6,976.320,91,28.6,45.1,0.406,734.8,2.1,1.050*
2018-06-19 00:44:00,-3.188E-01,4C000000*,-702.6,975.512,89,28.6,44.9,0.406,734.8,2.1,1.050*
2018-06-19 00:45:00,-3.292E-01,4C000000*,-702.6,975.916,89,28.6,45.2,0.407,734.8,2.1,1.050*
2018-06-19 00:46:00,-2.595E-01,4C000000*,-702.6,976.725,90,28.5,44.8,0.407,734.8,2.1,1.050*
2018-06-19 00:47:00,-2.902E-01,4C000000*,-702.3,976.725,90,28.5,45.0,0.407,734.8,2.1,1.050*
2018-06-19 00:48:00,-2.762E-01,4C000000*,-703.0,976.725,89,28.7,44.9,0.406,734.8,2.1,1.050*
2018-06-19 00:49:00,-3.164E-01,4C000000*,-702.6,975.108,91,28.7,45.0,0.406,734.8,2.1,1.050*
2018-06-19 00:50:00,-2.685E-01,4C000000*,-703.4,976.725,91,28.6,45.1,0.406,734.8,2.1,1.050*
2018-06-19 00:51:00,-3.664E-01,4C000000*,-703.4,976.725,90,28.7,44.8,0.406,734.8,2.1,1.050*
2018-06-19 00:52:00,-2.289E-01,4C000000*,-702.6,977.129,91,28.6,45.2,0.406,734.8,2.1,1.050*
2018-06-19 00:53:00,-2.950E-01,4C000000*,-702.6,976.725,90,28.6,44.8,0.407,734.8,2.1,1.050*
2018-06-19 00:54:00,-2.591E-01,4C000000*,-703.0,977.533,90,28.6,45.0,0.406,734.8,2.1,1.050*
2018-06-19 00:55:00,-3.093E-01,4C000000*,-702.6,976.725,90,28.7,44.9,0.406,734.8,2.1,1.050*
2018-06-19 00:56:00,-2.409E-01,4C000000*,-703.0,976.320,90,28.7,45.0,0.406,734.8,2.1,1.050*
2018-06-19 00:57:00,-2.349E-01,4C000000*,-703.0,976.320,90,28.7,45.1,0.406,734.5,2.1,1.050*
2018-06-19 00:58:00,-2.754E-01,4C000000*,-702.6,976.320,89,28.7,44.9,0.407,734.8,2.1,1.050*
2018-06-19 00:59:00,-2.769E-01,4C000000*,-702.6,975.512,88,28.6,45.1,0.406,734.5,2.1,1.050*
2018-06-19 01:00:00,-2.800E-01,4C000000*,-703.0,976.320,90,28.6,44.8,0.407,734.8,2.1,1.050*
2018-06-19 01:01:00,-3.144E-01,4C000000*,-702.6,975.916,91,28.7,45.2,0.406,734.8,2.1,1.050*
2018-06-19 01:02:00,-2.515E-01,4C000000*,-702.6,975.916,90,28.6,44.8,0.406,734.5,2.1,1.050*
2018-06-19 01:03:00,-3.121E-01,4C000000*,-702.6,975.108,90,28.7,45.1,0.406,734.5,2.1,1.050*
2018-06-19 01:04:00,-2.897E-01,4C000000*,-702.6,976.725,91,28.6,45.0,0.406,734.8,2.1,1.050*
2018-06-19 01:05:00,-3.209E-01,4C000000*,-702.6,975.108,89,28.7,45.0,0.406,734.8,2.1,1.050*
2018-06-19 01:06:00,-3.335E-01,4C000000*,-702.6,976.725,90,28.7,45.1,0.406,734.5,2.1,1.050*
2018-06-19 01:07:00,-3.683E-01,4C000000*,-703.0,976.725,89,28.7,44.9,0.406,734.8,2.1,1.050*
2018-06-19 01:08:00,-2.665E-01,4C000000*,-702.6,976.725,90,28.7,45.2,0.406,734.8,2.1,1.050*
2018-06-19 01:09:00,-3.071E-01,4C000000*,-702.6,975.916,90,28.8,44.8,0.407,734.5,2.1,1.050*
2018-06-19 01:10:00,-2.530E-01,4C000000*,-702.3,976.320,90,28.7,45.0,0.406,734.5,2.1,1.050*
2018-06-19 01:11:00,-2.734E-01,4C000000*,-702.6,977.129,90,28.7,45.0,0.407,734.8,2.1,1.050*
2018-06-19 01:12:00,-2.727E-01,4C000000*,-702.6,978.342,89,28.8,44.8,0.406,734.5,2.1,1.050*
2018-06-19 01:13:00,-3.381E-01,4C000000*,-702.6,977.938,90,28.8,45.2,0.407,734.8,2.1,1.050*
2018-06-19 01:14:00,-3.831E-01,4C000000*,-702.6,977.533,90,28.7,44.9,0.407,734.5,2.1,1.050*
2018-06-19 01:15:00,-2.104E-01,4C000000*,-702.6,976.725,90,28.8,44.8,0.406,734.8,2.1,1.050*
2018-06-19 01:16:00,-2.964E-01,4C000000*,-702.6,977.533,92,28.8,45.1,0.406,734.5,2.1,1.050*
2018-06-19 01:17:00,-1.438E-01,4C000000*,-702.6,977.129,89,28.8,44.8,0.407,734.5,2.1,1.050*
2018-06-19 01:18:00,-3.351E-01,4C000000*,-702.6,977.533,90,28.8,45.1,0.406,734.8,2.1,1.050*
2018-06-19 01:19:00,-2.882E-01,4C000000*,-703.0,978.342,91,28.8,44.9,0.406,734.5,2.1,1.050*
2018-06-19 01:20:00,-2.361E-01,4C000000*,-702.3,977.129,90,28.8,45.0,0.406,734.8,2.1,1.050*
2018-06-19 01:21:00,-3.044E-01,4C000000*,-702.6,977.129,90,28.7,45.0,0.406,734.8,2.1,1.050*
2018-06-19 01:22:00,-2.242E-01,4C000000*,-702.3,978.342,89,28.7,44.9,0.406,734.8,2.1,1.050*
2018-06-19 01:23:00,-2.439E-01,4C000000*,-702.6,978.342,89,28.7,45.0,0.406,734.5,2.1,1.050*
2018-06-19 01:24:00,-3.095E-01,4C000000*,-703.0,977.938,90,28.7,44.8,0.406,734.8,2.1,1.050*
2018-06-19 01:25:00,-2.634E-01,4C000000*,-702.6,978.342,88,28.7,45.2,0.406,734.5,2.1,1.050*
2018-06-19 01:26:00,-3.402E-01,4C000000*,-702.6,977.938,89,28.6,44.8,0.407,734.5,2.1,1.050*
2018-06-19 01:27:00,-2.561E-01,4C000000*,-702.6,977.533,89,28.7,45.1,0.407,734.5,2.1,1.050*
2018-06-19 01:28:00,-2.396E-01,4C000000*,-703.4,978.342,89,28.7,44.9,0.406,734.5,2.1,1.050*
2018-06-19 01:29:00,-2.189E-01,4C000000*,-702.6,978.746,90,28.6,45.0,0.407,734.8,2.1,1.050*
2018-06-19 01:30:00,-2.207E-01,4C000000*,-702.6,977.129,90,28.5,45.0,0.406,734.5,2.1,1.050*
2018-06-19 01:31:00,-2.737E-01,4C000000*,-702.6,977.533,88,28.6,44.9,0.406,734.5,2.1,1.050*
2018-06-19 01:32:00,-2.044E-01,4C000000*,-702.6,977.533,90,28.6,45.2,0.406,734.5,2.1,1.050*
2018-06-19 01:33:00,-3.570E-01,4C000000*,-703.4,976.725,90,28.6,44.8,0.407,734.5,2.1,1.050*
2018-06-19 01:34:00,-2.973E-01,4C000000*,-703.0,977.533,89,28.6,45.0,0.406,734.8,2.1,1.050*
2018-06-19 01:35:00,-2.044E-01,4C000000*,-702.3,977.938,91,28.5,44.9,0.407,734.5,2.1,1.050*
2018-06-19 01:36:00,-2.888E-01,4C000000*,-702.6,977.533,90,28.6,45.0,0.406,734.5,2.1,1.050*
2018-06-19 01:37:00,-1.974E-01,4C000000*,-702.6,977.129,89,28.6,45.1,0.406,734.5,2.1,1.050*
2018-06-19 01:38:00,-2.497E-01,4C000000*,-703.0,977.533,88,28.6,44.8,0.407,734.8,2.1,1.050*
2018-06-19 01:39:00,-2.383E-01,4C000000*,-703.0,979.555,91,28.7,45.2,0.407,734.5,2.1,1.050*
2018-06-19 01:40:00,-3.171E-01,4C000000*,-702.6,977.938,90,28.6,44.8,0.407,734.5,2.1,1.050*
2018-06-19 01:41:00,-2.842E-01,4C000000*,-702.6,978.746,89,28.6,45.1,0.407,734.8,2.1,1.050*
2018-06-19 01:42:00,-2.762E-01,4C000000*,-702.6,978.342,89,28.7,45.0,0.406,734.2,2.1,1.050*
2018-06-19 01:43:00,-2.617E-01,4C000000*,-702.6,979.150,89,28.7,45.0,0.406,734.8,2.1,1.050*
2018-06-19 01:44:00,-2.882E-01,4C000000*,-702.6,978.746,90,28.6,45.1,0.406,734.5,2.1,1.050*
2018-06-19 01:45:00,-3.131E-01,4C000000*,-702.3,977.533,89,28.6,44.9,0.407,734.8,2.1,1.050*
2018-06-19 01:46:00,-3.417E-01,4C000000*,-702.6,977.938,90,28.7,45.1,0.406,734.5,2.1,1.050*
2018-06-19 01:47:00,-1.855E-01,4C000000*,-703.0,978.342,90,28.7,44.9,0.407,734.8,2.1,1.050*
2018-06-19 01:48:00,-3.031E-01,4C000000*,-702.6,978.746,91,28.7,45.2,0.407,734.5,2.1,1.050*
2018-06-19 01:49:00,-2.471E-01,4C000000*,-702.6,977.938,90,28.8,44.8,0.407,734.8,2.1,1.050*
2018-06-19 01:50:00,-2.755E-01,4C000000*,-702.6,977.938,89,28.7,45.1,0.407,734.8,2.1,1.050*
2018-06-19 01:51:00,-3.294E-01,4C000000*,-703.0,977.938,91,28.7,44.9,0.407,734.5,2.1,1.050*
2018-06-19 01:52:00,-2.580E-01,4C000000*,-702.6,977.938,90,28.7,44.9,0.407,734.5,2.1,1.050*
2018-06-19 01:53:00,-2.622E-01,4C000000*,-702.3,976.725,90,28.7,45.1,0.407,734.8,2.1,1.050*
2018-06-19 01:54:00,-2.602E-01,4C000000*,-702.6,978.342,89,28.7,44.9,0.407,734.8,2.1,1.050*
2018-06-19 01:55:00,-3.510E-01,4C000000*,-702.6,977.533,86,28.7,45.2,0.407,734.5,2.1,1.050*
2018-06-19 01:56:00,-2.958E-01,4C000000*,-702.6,978.746,90,28.7,44.9,0.407,734.8,2.1,1.050*
2018-06-19 01:57:00,-3.262E-01,4C000000*,-702.3,979.150,89,28.8,45.1,0.407,734.8,2.1,1.050*
2018-06-19 01:58:00,-2.481E-01,4C000000*,-703.0,977.533,90,28.8,44.9,0.407,734.5,2.1,1.050*
2018-06-19 01:59:00,-2.104E-01,4C000000*,-702.6,977.938,90,28.8,45.0,0.407,734.8,2.1,1.050*
2018-06-19 02:00:00,-3.601E-01,4C000000*,-703.0,978.342,90,28.8,45.1,0.406,734.8,2.1,1.050*
2018-06-19 02:01:00,-2.914E-01,4C000000*,-703.4,978.342,89,28.8,44.9,0.407,734.8,2.1,1.050*
2018-06-19 02:02:00,-2.252E-01,4C000000*,-702.6,977.938,90,28.9,45.2,0.407,734.5,2.1,1.050*
2018-06-19 02:03:00,-2.858E-01,4C000000*,-702.6,978.746,89,28.9,44.9,0.406,734.5,2.1,1.050*
2018-06-19 02:04:00,-2.856E-01,4C000000*,-702.6,977.938,90,28.8,45.1,0.406,734.8,2.1,1.050*
2018-06-19 02:05:00,-3.037E-01,4C000000*,-702.6,977.533,90,28.8,44.9,0.407,734.5,2.1,1.050*
2018-06-19 02:06:00,-2.458E-01,4C000000*,-702.6,977.938,90,28.8,45.0,0.406,734.8,2.1,1.050*
2018-06-19 02:07:00,-2.824E-01,4C000000*,-703.0,977.533,89,28.9,45.1,0.406,734.5,2.1,1.050*
2018-06-19 02:08:00,-2.473E-01,4C000000*,-702.6,978.746,91,28.9,44.9,0.406,734.5,2.1,1.050*
2018-06-19 02:09:00,-2.927E-01,4C000000*,-702.6,977.129,90,28.9,45.1,0.407,734.5,2.1,1.050*
2018-06-19 02:10:00,-2.881E-01,4C000000*,-701.9,978.342,90,28.9,44.8,0.407,734.5,2.1,1.050*
2018-06-19 02:11:00,-3.427E-01,4C000000*,-702.3,979.150,89,28.8,45.1,0.406,734.5,2.1,1.050*
2018-06-19 02:12:00,-2.415E-01,4C000000*,-702.6,979.959,90,28.8,44.9,0.407,734.5,2.1,1.050*
2018-06-19 02:13:00,-2.788E-01,4C000000*,-702.6,979.150,90,28.9,45.0,0.407,734.5,2.1,1.050*
2018-06-19 02:14:00,-3.716E-01,4C000000*,-703.0,978.746,90,28.9,45.0,0.407,734.5,2.1,1.050*
2018-06-19 02:15:00,-2.557E-01,4C000000*,-703.0,978.342,89,28.8,45.0,0.407,734.5,2.1,1.050*
2018-06-19 02:16:00,-1.786E-01,4C000000*,-702.6,979.150,91,28.9,45.0,0.407,734.2,2.1,1.050*
2018-06-19 02:17:00,-2.016E-01,4C000000*,-703.0,978.746,90,28.9,44.8,0.407,734.5,2.1,1.050*
2018-06-19 02:18:00,-2.894E-01,4C000000*,-702.6,978.746,90,28.9,45.2,0.407,734.5,2.1,1.050*
2018-06-19 02:19:00,-2.366E-01,4C000000*,-702.6,978.746,90,29.0,44.9,0.407,734.5,2.1,1.050*
2018-06-19 02:20:00,-3.063E-01,4C000000*,-703.0,978.746,89,28.9,45.0,0.407,734.5,2.1,1.050*
2018-06-19 02:21:00,-2.832E-01,4C000000*,-702.3,978.342,90,28.8,45.1,0.407,734.5,2.1,1.050*
2018-06-19 02:22:00,-2.416E-01,4C000000*,-702.6,978.342,88,28.9,44.8,0.407,734.5,2.1,1.050*
2018-06-19 02:23:00,-2.945E-01,4C000000*,-702.6,978.746,90,28.8,45.1,0.407,734.5,2.1,1.050*
2018-06-19 02:24:00,-2.400E-01,4C000000*,-702.6,979.150,90,28.9,44.9,0.406,734.5,2.1,1.050*
2018-06-19 02:25:00,-2.927E-01,4C000000*,-702.6,979.150,90,28.8,45.1,0.407,734.5,2.1,1.050*
2018-06-19 02:26:00,-3.254E-01,4C000000*,-702.6,979.959,91,28.8,45.0,0.407,734.2,2.1,1.050*
2018-06-19 02:27:00,-3.118E-01,4C000000*,-702.6,979.555,90,28.8,44.9,0.407,734.5,2.1,1.050*
2018-06-19 02:28:00,-1.992E-01,4C000000*,-703.0,978.342,90,28.8,45.0,0.407,734.5,2.1,1.050*
2018-06-19 02:29:00,-2.941E-01,4C000000*,-702.6,977.938,90,28.8,44.8,0.407,734.5,2.1,1.050*
2018-06-19 02:30:00,-3.001E-01,4C000000*,-702.6,979.150,89,28.9,45.2,0.407,734.5,2.1,1.050*
2018-06-19 02:31:00,-2.201E-01,4C000000*,-702.6,977.938,90,28.9,44.8,0.407,734.5,2.1,1.050*
2018-06-19 02:32:00,-3.694E-01,4C000000*,-703.0,978.342,91,28.9,45.1,0.407,734.5,2.1,1.050*
2018-06-19 02:33:00,-3.239E-01,4C000000*,-702.6,978.342,90,28.9,44.9,0.406,734.8,2.1,1.050*
2018-06-19 02:34:00,-2.197E-01,4C000000*,-702.6,978.746,90,28.9,44.9,0.407,734.5,2.1,1.050*
2018-06-19 02:35:00,-3.087E-01,4C000000*,-702.6,977.938,91,28.9,45.1,0.406,734.5,2.1,1.050*
2018-06-19 02:36:00,-3.209E-01,4C000000*,-702.6,978.342,90,28.9,44.9,0.407,734.5,2.1,1.050*
2018-06-19 02:37:00,-3.313E-01,4C000000*,-702.6,978.746,91,29.0,45.2,0.406,734.8,2.1,1.050*
2018-06-19 02:38:00,-2.630E-01,4C000000*,-703.0,979.150,90,29.0,44.8,0.406,734.5,2.1,1.050*
2018-06-19 02:39:00,-2.747E-01,4C000000*,-703.0,978.342,91,29.0,45.1,0.406,734.5,2.1,1.050*
2018-06-19 02:40:00,-3.001E-01,4C000000*,-703.0,978.746,88,29.0,44.9,0.406,734.5,2.1,1.050*
2018-06-19 02:41:00,-3.536E-01,4C000000*,-703.0,979.150,89,28.9,45.0,0.406,734.5,2.1,1.050*
2018-06-19 02:42:00,-2.721E-01,4C000000*,-703.0,977.533,89,29.0,45.1,0.407,734.5,2.1,1.050*
2018-06-19 02:43:00,-3.097E-01,4C000000*,-702.6,978.746,90,28.9,44.9,0.406,734.5,2.1,1.050*
2018-06-19 02:44:00,-2.369E-01,4C000000*,-703.0,977.938,89,29.0,45.1,0.406,734.5,2.1,1.050*
2018-06-19 02:45:00,-3.360E-01,4C000000*,-702.6,977.938,89,28.9,44.8,0.406,734.5,2.1,1.050*
2018-06-19 02:46:00,-2.370E-01,4C000000*,-702.6,978.342,89,29.0,45.1,0.407,734.5,2.1,1.050*
2018-06-19 02:47:00,-2.805E-01,4C000000*,-702.6,977.938,89,29.0,44.9,0.407,734.5,2.1,1.050*
2018-06-19 02:48:00,-2.032E-01,4C000000*,-702.6,978.746,91,29.0,45.1,0.406,734.5,2.1,1.050*
2018-06-19 02:49:00,-2.538E-01,4C000000*,-702.6,978.342,90,29.0,45.0,0.406,734.2,2.1,1.050*
2018-06-19 02:50:00,-3.410E-01,4C000000*,-702.6,978.342,89,29.0,44.9,0.407,734.5,2.1,1.050*
2018-06-19 02:51:00,-2.898E-01,4C000000*,-702.6,977.533,89,29.0,45.1,0.407,734.5,2.1,1.050*
2018-06-19 02:52:00,-3.038E-01,4C000000*,-702.6,977.533,90,29.0,44.8,0.406,734.5,2.1,1.050*
2018-06-19 02:53:00,-3.353E-01,4C000000*,-702.6,978.342,89,28.9,44.9,0.407,734.5,2.1,1.050*
2018-06-19 02:54:00,-3.536E-01,4C000000*,-702.6,978.342,91,29.0,45.1,0.407,734.5,2.1,1.050*
2018-06-19 02:55:00,-3.146E-01,4C000000*,-702.3,977.938,88,28.9,44.9,0.407,734.5,2.1,1.050*
2018-06-19 02:56:00,-3.203E-01,4C000000*,-702.6,977.938,88,28.9,45.1,0.407,734.2,2.1,1.050*
2018-06-19 02:57:00,-2.604E-01,4C000000*,-702.6,977.129,90,29.0,44.9,0.406,734.5,2.1,1.050*
2018-06-19 02:58:00,-3.889E-01,4C000000*,-702.6,977.938,91,29.0,45.1,0.407,734.2,2.1,1.050*
2018-06-19 02:59:00,-2.570E-01,4C000000*,-702.6,977.533,90,29.0,44.8,0.406,734.2,2.1,1.050*
2018-06-19 03:00:00,-3.674E-01,4C000000*,-702.6,977.533,89,29.0,45.0,0.407,734.5,2.1,1.050*
2018-06-19 03:01:00,-3.125E-01,4C000000*,-703.0,978.342,90,29.0,45.1,0.406,734.2,2.1,1.050*
2018-06-19 03:02:00,-2.490E-01,4C000000*,-702.6,978.342,91,29.0,44.9,0.407,734.5,2.1,1.050*
2018-06-19 03:03:00,-3.144E-01,4C000000*,-702.6,978.342,90,29.1,45.1,0.406,734.2,2.1,1.050*
2018-06-19 03:04:00,-2.980E-01,4C000000*,-702.6,977.129,91,29.1,44.9,0.407,734.5,2.1,1.050*
2018-06-19 03:05:00,-2.411E-01,4C000000*,-702.6,977.533,90,29.1,45.2,0.407,734.2,2.1,1.050*
2018-06-19 03:06:00,-2.228E-01,4C000000*,-702.6,977.938,91,29.0,44.8,0.406,734.2,2.1,1.050*
2018-06-19 03:07:00,-3.767E-01,4C000000*,-702.6,976.320,91,29.1,45.1,0.406,734.5,2.1,1.050*
2018-06-19 03:08:00,-2.354E-01,4C000000*,-702.6,976.320,90,29.1,45.0,0.406,734.2,2.1,1.050*
2018-06-19 03:09:00,-2.307E-01,4C000000*,-702.6,977.533,90,29.1,44.9,0.407,734.5,2.1,1.050*
2018-06-19 03:10:00,-3.195E-01,4C000000*,-702.6,975.916,90,29.1,45.1,0.406,734.2,2.1,1.050*
2018-06-19 03:11:00,-3.329E-01,4C000000*,-702.6,976.320,91,29.0,44.9,0.406,734.5,2.1,1.050*
2018-06-19 03:12:00,-2.998E-01,4C000000*,-702.6,976.725,89,29.1,45.2,0.406,734.2,2.1,1.050*
2018-06-19 03:13:00,-2.450E-01,4C000000*,-703.0,977.129,90,29.0,44.8,0.406,734.2,2.1,1.050*
2018-06-19 03:14:00,-2.999E-01,4C000000*,-703.0,977.129,90,29.1,45.1,0.406,734.5,2.1,1.050*
2018-06-19 03:15:00,-2.753E-01,4C000000*,-703.0,976.725,90,29.1,44.9,0.407,734.2,2.1,1.050*
2018-06-19 03:16:00,-3.434E-01,4C000000*,-702.6,976.320,90,29.1,45.0,0.407,734.2,2.1,1.050*
2018-06-19 03:17:00,-3.118E-01,4C000000*,-703.0,975.916,89,29.1,45.1,0.406,734.5,2.1,1.050*
2018-06-19 03:18:00,-3.334E-01,4C000000*,-702.6,976.320,90,29.1,44.9,0.407,734.5,2.1,1.050*
2018-06-19 03:19:00,-2.819E-01,4C000000*,-703.0,977.129,89,29.1,45.2,0.406,734.5,2.1,1.050*
2018-06-19 03:20:00,-2.671E-01,4C000000*,-702.6,977.129,89,29.1,44.8,0.406,734.5,2.1,1.050*
2018-06-19 03:21:00,-2.337E-01,4C000000*,-702.6,975.916,90,29.1,45.0,0.406,734.5,2.1,1.050*
2018-06-19 03:22:00,-2.885E-01,4C000000*,-702.3,976.725,89,29.1,44.9,0.406,734.2,2.1,1.050*
2018-06-19 03:23:00,-3.349E-01,4C000000*,-702.6,976.320,90,29.1,45.0,0.407,734.5,2.1,1.050*
2018-06-19 03:24:00,-2.464E-01,4C000000*,-703.0,976.320,90,29.1,45.1,0.407,734.2,2.1,1.050*
2018-06-19 03:25:00,-3.695E-01,4C000000*,-702.6,975.108,90,29.1,44.9,0.407,734.2,2.1,1.050*
2018-06-19 03:26:00,-2.769E-01,4C000000*,-703.0,976.725,87,29.1,45.1,0.406,734.2,2.1,1.050*
2018-06-19 03:27:00,-3.859E-01,4C000000*,-702.6,977.533,90,29.2,44.9,0.407,734.2,2.1,1.050*
2018-06-19 03:28:00,-2.782E-01,4C000000*,-702.6,976.320,90,29.1,45.1,0.407,734.2,2.1,1.050*
2018-06-19 03:29:00,-3.423E-01,4C000000*,-703.0,977.129,89,29.1,44.8,0.407,734.2,2.1,1.050*
2018-06-19 03:30:00,-2.945E-01,4C000000*,-703.0,975.916,90,29.1,45.0,0.407,734.2,2.1,1.050*
2018-06-19 03:31:00,-2.851E-01,4C000000*,-702.6,977.938,91,29.2,45.1,0.406,734.2,2.1,1.050*
2018-06-19 03:32:00,-2.242E-01,4C000000*,-702.6,976.725,90,29.2,44.9,0.407,734.2,2.1,1.050*
2018-06-19 03:33:00,-2.396E-01,4C000000*,-703.0,977.533,90,29.2,45.1,0.407,733.9,2.1,1.050*
2018-06-19 03:34:00,-2.087E-01,4C000000*,-702.6,976.725,90,29.1,44.9,0.407,734.2,2.1,1.050*
2018-06-19 03:35:00,-3.602E-01,4C000000*,-702.3,976.725,89,29.2,45.2,0.406,734.2,2.1,1.050*
2018-06-19 03:36:00,-2.413E-01,4C000000*,-703.0,976.725,91,29.2,44.8,0.407,734.2,2.1,1.050*
2018-06-19 03:37:00,-3.190E-01,4C000000*,-702.3,975.512,89,29.1,45.0,0.407,734.2,2.1,1.050*
2018-06-19 03:38:00,-3.779E-01,4C000000*,-702.6,976.725,90,29.2,44.9,0.407,734.2,2.1,1.050*
2018-06-19 03:39:00,-2.580E-01,4C000000*,-702.6,976.320,91,29.1,45.0,0.407,734.2,2.1,1.050*
2018-06-19 03:40:00,-3.244E-01,4C000000*,-702.6,976.725,89,29.1,45.1,0.406,734.2,2.1,1.050*
2018-06-19 03:41:00,-2.990E-01,4C000000*,-702.6,977.533,90,29.1,44.9,0.407,734.2,2.1,1.050*
2018-06-19 03:42:00,-2.748E-01,4C000000*,-702.6,975.512,90,29.1,45.2,0.406,734.2,2.1,1.050*
2018-06-19 03:43:00,-3.081E-01,4C000000*,-702.6,975.108,91,29.1,44.9,0.406,734.2,2.1,1.050*
2018-06-19 03:44:00,-2.522E-01,4C000000*,-702.6,976.320,91,29.2,45.1,0.407,734.5,2.1,1.050*
2018-06-19 03:45:00,-3.111E-01,4C000000*,-702.6,975.916,89,29.1,45.0,0.407,734.2,2.1,1.050*
2018-06-19 03:46:00,-2.293E-01,4C000000*,-702.6,976.320,89,29.3,45.0,0.407,734.2,2.1,1.050*
2018-06-19 03:47:00,-2.848E-01,4C000000*,-703.0,976.320,89,29.2,45.1,0.406,733.9,2.1,1.050*
2018-06-19 03:48:00,-2.554E-01,4C000000*,-702.6,976.320,90,29.2,44.9,0.407,734.5,2.1,1.050*
2018-06-19 03:49:00,-3.134E-01,4C000000*,-702.6,975.512,91,29.1,45.1,0.406,734.2,2.1,1.050*
2018-06-19 03:50:00,-2.199E-01,4C000000*,-702.6,975.108,89,29.2,44.9,0.407,734.2,2.1,1.050*
2018-06-19 03:51:00,-2.362E-01,4C000000*,-703.0,975.916,91,29.2,45.1,0.406,734.2,2.1,1.050*
2018-06-19 03:52:00,-3.652E-01,4C000000*,-702.6,975.916,89,29.2,44.9,0.407,734.2,2.1,1.050*
2018-06-19 03:53:00,-2.609E-01,4C000000*,-703.0,976.320,91,29.2,45.0,0.407,734.2,2.1,1.050*
2018-06-19 03:54:00,-2.446E-01,4C000000*,-702.3,975.916,89,29.2,45.1,0.407,734.2,2.1,1.050*
2018-06-19 03:55:00,-3.335E-01,4C000000*,-702.6,974.703,91,29.2,44.9,0.406,734.2,2.1,1.050*
2018-06-19 03:56:00,-3.633E-01,4C000000*,-703.0,976.320,91,29.2,45.1,0.407,734.2,2.1,1.050*
2018-06-19 03:57:00,-2.358E-01,4C000000*,-702.6,975.916,89,29.3,44.8,0.406,734.2,2.1,1.050*
2018-06-19 03:58:00,-3.839E-01,4C000000*,-703.0,976.725,90,29.2,45.1,0.407,734.2,2.1,1.050*
2018-06-19 03:59:00,-3.039E-01,4C000000*,-702.6,975.916,91,29.3,44.9,0.407,734.2,2.1,1.050*
2018-06-19 04:00:00,-2.877E-01,4C000000*,-702.6,975.916,89,29.3,45.1,0.407,734.2,2.1,1.050*
2018-06-19 04:01:00,-3.245E-01,4C000000*,-702.6,976.725,90,29.2,45.0,0.407,734.2,2.1,1.050*
2018-06-19 04:02:00,-2.795E-01,4C000000*,-702.6,975.916,90,29.3,44.9,0.407,734.2,2.1,1.050*
2018-06-19 04:03:00,-1.632E-01,4C000000*,-702.6,975.512,90,29.2,45.0,0.407,734.2,2.1,1.050*
2018-06-19 04:04:00,-3.155E-01,4C000000*,-703.0,977.938,90,29.3,44.9,0.406,734.2,2.1,1.050*
2018-06-19 04:05:00,-2.938E-01,4C000000*,-702.6,976.725,90,29.3,45.2,0.406,733.9,2.1,1.050*
2018-06-19 04:06:00,-2.447E-01,4C000000*,-702.6,976.725,90,29.3,44.8,0.406,734.2,2.1,1.050*
2018-06-19 04:07:00,-3.231E-01,4C000000*,-702.3,975.108,90,29.2,45.1,0.407,734.2,2.1,1.050*
2018-06-19 04:08:00,-3.696E-01,4C000000*,-702.3,976.320,91,29.3,44.9,0.406,733.9,2.1,1.050*
2018-06-19 04:09:00,-2.707E-01,4C000000*,-702.3,976.725,90,29.3,45.0,0.407,734.2,2.1,1.050*
2018-06-19 04:10:00,-2.409E-01,4C000000*,-703.0,975.916,90,29.3,45.1,0.407,733.9,2.1,1.050*
2018-06-19 04:11:00,-2.836E-01,4C000000*,-702.6,976.320,91,29.3,44.9,0.406,734.2,2.1,1.050*
2018-06-19 04:12:00,-2.728E-01,4C000000*,-702.6,975.916,90,29.3,45.2,0.406,734.2,2.1,1.050*
2018-06-19 04:13:00,-2.196E-01,4C000000*,-702.6,975.916,90,29.3,44.9,0.407,733.9,2.1,1.050*
2018-06-19 04:14:00,-3.125E-01,4C000000*,-702.6,976.725,90,29.3,45.1,0.406,734.2,2.1,1.050*